TimeMDT,TemperatureF,Dew PointF,Humidity,Sea Level PressureIn,VisibilityMPH,Wind Direction,Wind SpeedMPH,Gust SpeedMPH,PrecipitationIn,Events,Conditions,WindDirDegrees,DateUTC
12:51 AM,46.9,37.0,68,29.68,10.0,South,9.2,-,N/A,,Overcast,180,2013-03-21 06:51:00
1:51 AM,46.9,36.0,66,29.67,10.0,South,9.2,-,0.00,,Overcast,170,2013-03-21 07:51:00
2:43 AM,44.6,37.4,76,29.70,10.0,NW,28.8,35.7,N/A,Thunderstorm,Overcast,310,2013-03-21 08:43:00
3:21 AM,41.0,37.4,87,29.75,10.0,NW,6.9,-,0.03,,Overcast,320,2013-03-21 09:21:00
3:30 AM,41.0,33.8,76,29.75,10.0,NNW,12.7,-,0.03,,Overcast,330,2013-03-21 09:30:00
3:51 AM,41.0,34.0,76,29.73,10.0,NW,8.1,-,0.03,,Overcast,310,2013-03-21 09:51:00
4:51 AM,37.0,30.0,76,29.78,10.0,NNW,11.5,-,0.01,,Overcast,340,2013-03-21 10:51:00
5:51 AM,35.1,28.0,76,29.82,9.0,NNW,9.2,-,0.01,Snow,Light Snow,340,2013-03-21 11:51:00
6:16 AM,33.8,26.6,75,29.87,1.8,NNW,18.4,31.1,0.00,Snow,Light Snow,330,2013-03-21 12:16:00
6:21 AM,33.8,26.6,75,29.88,1.2,NW,21.9,27.6,0.00,Snow,Light Snow,310,2013-03-21 12:21:00
6:33 AM,32.0,28.4,87,29.88,1.0,North,13.8,-,0.00,Snow,Light Snow,360,2013-03-21 12:33:00
6:40 AM,32.0,28.4,87,29.87,2.0,NNE,9.2,-,0.00,Snow,Light Snow,30,2013-03-21 12:40:00
6:46 AM,32.0,28.4,87,29.87,8.0,ENE,6.9,-,0.00,Snow,Light Snow,70,2013-03-21 12:46:00
6:51 AM,32.0,28.9,88,29.86,6.0,East,6.9,-,0.00,Snow,Light Snow,80,2013-03-21 12:51:00
7:03 AM,32.0,28.4,87,29.85,6.0,ESE,10.4,-,0.00,Snow,Light Snow,110,2013-03-21 13:03:00
7:51 AM,32.0,28.0,85,29.87,10.0,SSW,6.9,-,0.00,,Overcast,200,2013-03-21 13:51:00
8:51 AM,33.1,26.1,75,29.93,10.0,West,10.4,-,N/A,,Overcast,260,2013-03-21 14:51:00
9:51 AM,34.0,21.0,59,29.95,10.0,West,11.5,-,N/A,,Mostly Cloudy,270,2013-03-21 15:51:00
10:51 AM,35.1,19.9,54,29.97,10.0,NW,19.6,25.3,N/A,,Mostly Cloudy,310,2013-03-21 16:51:00
11:51 AM,36.0,19.0,50,29.98,10.0,NW,10.4,-,N/A,,Overcast,320,2013-03-21 17:51:00
1:51 PM,37.9,19.0,47,29.96,10.0,Variable,5.8,18.4,N/A,,Overcast,0,2013-03-21 19:51:00
2:51 PM,39.0,18.0,43,29.97,10.0,WNW,11.5,19.6,N/A,,Clear,290,2013-03-21 20:51:00
3:51 PM,39.9,18.0,41,29.95,10.0,WSW,12.7,-,N/A,,Overcast,240,2013-03-21 21:51:00
4:51 PM,39.0,19.9,46,29.97,10.0,WNW,6.9,-,N/A,,Overcast,290,2013-03-21 22:51:00
5:51 PM,39.0,23.0,53,29.96,10.0,WNW,12.7,-,N/A,,Overcast,300,2013-03-21 23:51:00
6:51 PM,39.9,19.0,43,29.97,10.0,WNW,11.5,-,N/A,,Mostly Cloudy,290,2013-03-22 00:51:00
8:51 PM,32.0,21.9,66,30.00,10.0,North,5.8,-,N/A,,Clear,350,2013-03-22 02:51:00
9:51 PM,30.0,19.9,66,30.02,10.0,NNW,8.1,-,N/A,,Clear,330,2013-03-22 03:51:00
10:51 PM,28.9,19.0,67,30.03,10.0,North,8.1,-,N/A,,Clear,350,2013-03-22 04:51:00
11:51 PM,28.9,19.9,69,30.03,10.0,Calm,Calm,-,N/A,,Clear,0,2013-03-22 05:51:00